sat.trackr.live / text

‹ back to catalog

FLOCK 4H-8

NORAD 66711 · 2025-276AX

PAYLOAD ACTIVE UNKNOWN

§ Identity

Operator
Country
US
Launch date
2025-11-28
Launch site
AFWTR
Launch vehicle
Mass (kg)
RCS (m²)

Purposes: earth_obs

External: N2YO · Heavens-Above · Gunter

§ Orbital elements

Epoch: 2026-05-25T03:26:36.380832Z

Period
94.75 min
Inclination
97.4230°
Eccentricity
0.0005155
Mean motion
15.19820148 rev/d
Perigee alt
502.8 km
Apogee alt
509.9 km
Semi-major
6,884.5 km
B*
3.0718e-4
RAAN
219.1678°
Arg perigee
97.6837°
Mean anomaly
262.4984°
Rev number
2,692

§ Raw data

FLOCK 4H-81 66711U 25276AX  26145.14347663  .00006517  00000+0  30718-3 0  99952 66711  97.4230 219.1678 0005155  97.6837 262.4984 15.19820148 26921

JSON: /api/v1/satellites/66711 · /tle

For live sub-satellite position, see the globe view (requires WebGL).

§ Visibility from observer

Set your observer location to see the next 7 days of passes ≥ 10°. The values pass through the URL so the page stays shareable.

No JS? Fill the form by hand. The geolocation button needs JavaScript.